SR2WXM Weather Reports


time (UTC)temp
C
wind
direction
speed
KPH
gust
KPH
rain 1hr
cm
rain 24hr
cm
rain mn
cm
humidity
%
barometer
mb
20260504081502 22 221 4.8 6.4 0.00 0.00 0.00 43 1010.5
20260504050002 13 234 6.4 11.3 0.00 0.00 0.00 57 1009.4
20260504044502 13 145 6.4 11.3 0.00 0.00 0.00 58 1009.4
20260504043003 13 189 9.7 9.7 0.00 0.00 0.00 58 1009.1
20260504041502 13 222 6.4 9.7 0.00 0.00 0.00 58 1009.1
20260504040002 13 215 4.8 4.8 0.00 0.00 0.00 60 1009.1
20260504034502 13 192 6.4 14.5 0.00 0.00 0.00 59 1009.1
20260504033003 12 208 4.8 8.0 0.00 0.00 0.00 61 1009.1
20260504031503 12 207 1.6 4.8 0.00 0.00 0.00 61 1009.1
20260504030002 12 189 4.8 12.9 0.00 0.00 0.00 60 1009.4
20260504024502 12 181 4.8 4.8 0.00 0.00 0.00 61 1009.1
20260504023003 13 206 4.8 8.0 0.00 0.00 0.00 59 1009.4
20260504021502 13 226 3.2 6.4 0.00 0.00 0.00 58 1009.1
20260504020002 13 222 3.2 4.8 0.00 0.00 0.00 58 1009.1
20260504014502 13 217 4.8 6.4 0.00 0.00 0.00 57 1009.1
20260504013003 13 205 4.8 6.4 0.00 0.00 0.00 56 1009.4
20260504011503 13 204 4.8 4.8 0.00 0.00 0.00 56 1009.4
20260504010002 13 189 6.4 8.0 0.00 0.00 0.00 55 1009.4
20260504004503 13 201 6.4 6.4 0.00 0.00 0.00 55 1009.4
20260504003002 13 180 3.2 8.0 0.00 0.00 0.00 54 1009.4
20260504001503 15 183 6.4 6.4 0.00 0.00 0.00 53 1009.1
20260504000001 15 222 3.2 3.2 0.00 0.00 0.00 53 1009.4
20260503234502 15 198 4.8 8.0 0.00 0.00 0.00 51 1009.4
20260503233002 15 188 4.8 4.8 0.00 0.00 0.00 52 1009.4
20260503231502 15 188 4.8 6.4 0.00 0.00 0.00 52 1009.4
20260503230003 13 218 3.2 3.2 0.00 0.00 0.00 53 1009.4
20260503224502 15 179 3.2 6.4 0.00 0.00 0.00 52 1009.4
20260503223001 15 224 4.8 4.8 0.00 0.00 0.00 49 1009.4
20260503221503 15 210 3.2 3.2 0.00 0.00 0.00 49 1009.4
20260503220002 15 175 4.8 4.8 0.00 0.00 0.00 48 1009.4
20260503214502 15 227 1.6 1.6 0.00 0.00 0.00 47 1009.8
20260503213003 15 200 1.6 4.8 0.00 0.00 0.00 46 1009.8
20260503211502 15 186 3.2 3.2 0.00 0.00 0.00 45 1009.8
20260503210002 16 182 3.2 4.8 0.00 0.00 0.00 44 1009.8
20260503204502 16 203 1.6 4.8 0.00 0.00 0.00 43 1009.8
20260503203003 16 209 3.2 4.8 0.00 0.00 0.00 40 1009.8
20260503201502 17 200 4.8 4.8 0.00 0.00 0.00 38 1009.8
20260503200004 17 223 3.2 4.8 0.00 0.00 0.00 37 1009.8
20260503194503 17 193 1.6 3.2 0.00 0.00 0.00 35 1009.8
20260503193002 18 212 1.6 3.2 0.00 0.00 0.00 33 1009.8
20260503191502 18 213 1.6 1.6 0.00 0.00 0.00 33 1009.8
20260503190004 18 208 1.6 1.6 0.00 0.00 0.00 31 1009.8
20260503184503 20 179 3.2 4.8 0.00 0.00 0.00 31 1009.8
20260503183001 20 217 1.6 1.6 0.00 0.00 0.00 30 1009.8
20260503181503 20 208 1.6 1.6 0.00 0.00 0.00 29 1009.8
20260503180002 21 210 3.2 4.8 0.00 0.00 0.00 27 1009.4
20260503174503 22 211 1.6 4.8 0.00 0.00 0.00 28 1009.4
20260503173002 22 205 4.8 4.8 0.00 0.00 0.00 26 1009.4
20260503171501 23 200 4.8 9.7 0.00 0.00 0.00 24 1009.4